COSMOS 2251 DEB, 34911

Orbit data source: Space-Track

COSMOS 2251 DEB, 34911 is space debris in LEO originally from a launch on Wed, 16 Jun 1993 UTC launched from the Plesetsk Missile And Space Complex (PKMTR). The debris from Iridium 33, an American commercial communications satellite, has been tracked extensively since its accidental collision with the defunct Russian satellite Cosmos 2251 in 2009. This event, occurring at high speed in low Earth orbit (LEO), generated thousands of pieces of space debris, significantly increasing the risk of further collisions. The Iridium 33 debris cloud has impacted space traffic management and orbital debris mitigation strategies, making it a subject of ongoing study in space situational awareness.

Loading next visibility...
Identifier
34911, 1993-036ADG
Orbit
LEO
Country
Flag of CISCIS
Related business
Manufacturer
Unknown
Mission
Spacecraft
Bus & Motor
Unknown
Mass
Unknown
Launch date (UTC)
1993-06-16 (33 years ago)
Launch vehicle
Unknown
Launch site
Plesetsk Missile And Space Complex (PKMTR)
Object type
Payload
Rocket body
Debris
Shape & HBR
Unknown shape, 0.1 m
Radar Cross Section
Small (<0.1 m²)

Expand to show TLE details & history
Last TLE update: 19 hours ago

TLE from 19 hours ago
0 COSMOS 2251 DEB
1 34911U 93036ADG 26174.94145106  .00000228  00000-0  52304-4 0  9999
2 34911  74.0402 236.4382 0084687 313.0303 227.9161 14.59624950914053
Epoch: 2026-06-23T22:35Z
TLE epoch observation values (Epoch: 2026-06-23T22:35:41.371Z)
Latitude
-0.33619°
Longitude
165.50566°
Altitude
737.496 km
Speed
7.465 km/s
True Right ascension
03h 46m 08s
True Declination
0° 20' 03"
Sunlit
Object was in daylight at epoch
Visualization orbit readout
Latitude
Unknown
Longitude
Unknown
Altitude
Unknown
Speed
Unknown
Apparent Right ascension
Unknown
Apparent Declination
Unknown
Sunlit
N/A
Visualization observer readout
Local Sidereal Time
04:45:27
Azimuth
Unknown
Elevation
Unknown
Doppler factor
Unknown
Orbital elements
Apogee altitude
751.857 km
Perigee altitude
632.108 km
Semi-major axis
7,070.12 km
Eccentricity
0.00847
Inclination
74.0402°
RAAN
236.4382°
Arg. of periapsis
313.0303°
True anomaly
227.20097°
Mean anomaly
227.9161°
Eccentric anomaly
227.55803°
Mean motion
3.65093 °/min
Orbital period
98.61 mins
BSTAR
0.000052304

Documentation

Showing up to 5 results
|